Change the Weather History Date:

Wednesday, July 17, 2013

  Actual Average Record
Temperature  
Mean Temperature 84 °F 71 °F  
Max Temperature 90 °F 81 °F 95 °F (1901)
Min Temperature 77 °F 62 °F 45 °F (1934)
Degree Days  
Heating Degree Days 0 0  
Month to date heating degree days 2 4  
Since 1 June heating degree days 54 70  
Since 1 July heating degree days 2 4  
Cooling Degree Days 19 7  
Month to date cooling degree days 144 110  
Year to date cooling degree days 304 244  
Since 1 June cooling degree days 244 215  
Growing Degree Days 34 (Base 50)    
Moisture  
Dew Point 72 °F    
Average Humidity 72    
Maximum Humidity 85    
Minimum Humidity 59    
Precipitation  
Precipitation 0.00 in 0.07 in 1.57 in (2006)
Month to date precipitation 0.60 1.22  
Year to date precipitation 27.62 16.04  
Snow  
Snow 0.00 in 0.00 in - ()
Month to date snowfall 0.0 0.0  
Since 1 June snowfall 0.0 0.0  
Since 1 July snowfall 0.0 0.0  
Snow Depth 0.00 in    
Sea Level Pressure  
Sea Level Pressure 30.24 in    
Wind  
Wind Speed 7 mph (WSW)    
Max Wind Speed 13 mph    
Max Gust Speed 18 mph    
Visibility 10 miles    
Events      
T = Trace of Precipitation, MM = Missing Value Source: NWS Daily Summary

Daily Weather History Graph

Daily Weather History Graph

Search for Another Location

Airport or City:

Trip Planner

Search our weather history database for the weather conditions in past years. The results will help you decide how hot, cold, wet, or windy it might be!

Date:

Astronomy

Jul. 17, 2013 Rise Set
Actual Time 6:20 AM EDT 9:20 PM EDT
Civil Twilight 5:46 AM EDT 9:54 PM EDT
Nautical Twilight 5:03 AM EDT 10:38 PM EDT
Astronomical Twilight 4:11 AM EDT 11:29 PM EDT
Moon 4:07 PM EDT (7/17) 1:30 AM EDT (7/17)
Length of Visible Light 16h 08m
Length of Day
15h 00m
Waxing Gibbous, 67% of the Moon is Illuminated
Jul 17
Waxing Gibbous
Jul 22
Full
Jul 29
Last Quarter
Aug 6
New
Aug 14
First Quarter

Hourly Weather History & Observations

Time (EDT) Temp. Heat Index Dew Point Humidity Pressure Visibility Wind Dir Wind Speed Gust Speed Precip Events Conditions
12:55 AM 81.0 °F 84.4 °F 70.0 °F 69% 30.25 in 10.0 mi SW 9.2 mph - N/A   Clear
1:55 AM 81.0 °F 84.9 °F 71.1 °F 72% 30.25 in 10.0 mi WSW 10.4 mph - N/A   Clear
2:55 AM 80.1 °F 83.8 °F 72.0 °F 76% 30.24 in 10.0 mi WSW 6.9 mph - N/A   Clear
3:55 AM 80.1 °F 83.8 °F 72.0 °F 76% 30.25 in 10.0 mi West 8.1 mph - N/A   Clear
4:55 AM 79.0 °F - 72.0 °F 79% 30.25 in 10.0 mi West 6.9 mph - N/A   Clear
5:55 AM 78.1 °F - 72.0 °F 81% 30.26 in 10.0 mi West 4.6 mph - N/A   Partly Cloudy
6:55 AM 78.1 °F - 73.0 °F 84% 30.27 in 10.0 mi West 4.6 mph - N/A   Partly Cloudy
7:55 AM 81.0 °F 85.8 °F 73.0 °F 77% 30.28 in 10.0 mi West 4.6 mph - N/A   Partly Cloudy
8:55 AM 82.9 °F 88.8 °F 73.0 °F 72% 30.28 in 10.0 mi WNW 6.9 mph - N/A   Partly Cloudy
9:55 AM 84.9 °F 91.4 °F 73.0 °F 67% 30.29 in 10.0 mi West 8.1 mph - N/A   Clear
10:55 AM 86.0 °F 93.0 °F 73.0 °F 65% 30.29 in 10.0 mi WSW 6.9 mph - N/A   Scattered Clouds
11:55 AM 86.0 °F 93.0 °F 73.0 °F 65% 30.28 in 10.0 mi SW 9.2 mph - N/A   Partly Cloudy
12:55 PM 87.1 °F 94.5 °F 73.0 °F 63% 30.27 in 10.0 mi WSW 6.9 mph - N/A   Partly Cloudy
1:55 PM 88.0 °F 95.6 °F 73.0 °F 61% 30.26 in 10.0 mi WSW 9.2 mph - N/A   Partly Cloudy
2:55 PM 87.1 °F 94.5 °F 73.0 °F 63% 30.25 in 10.0 mi SW 8.1 mph - N/A   Partly Cloudy
3:55 PM 88.0 °F 95.6 °F 73.0 °F 61% 30.23 in 10.0 mi WSW 8.1 mph - N/A   Partly Cloudy
4:55 PM 89.1 °F 97.0 °F 73.0 °F 59% 30.22 in 10.0 mi SW 9.2 mph - N/A   Scattered Clouds
5:55 PM 88.0 °F 94.7 °F 72.0 °F 59% 30.20 in 10.0 mi SW 10.4 mph - N/A   Scattered Clouds
6:55 PM 84.9 °F 90.7 °F 72.0 °F 65% 30.18 in 10.0 mi SW 9.2 mph - N/A   Scattered Clouds
7:55 PM 84.0 °F 89.6 °F 72.0 °F 67% 30.17 in 10.0 mi WSW 6.9 mph - N/A   Scattered Clouds
8:55 PM 82.0 °F 86.7 °F 72.0 °F 71% 30.17 in 10.0 mi SSW 4.6 mph - N/A   Scattered Clouds
9:55 PM 80.1 °F 83.8 °F 72.0 °F 76% 30.17 in 10.0 mi South 4.6 mph - N/A   Scattered Clouds
10:55 PM 80.1 °F 83.8 °F 72.0 °F 76% 30.17 in 10.0 mi ESE 3.5 mph - N/A   Scattered Clouds
11:55 PM 79.0 °F - 72.0 °F 79% 30.17 in 10.0 mi South 3.5 mph - N/A   Clear